FW4683 Weather Reports


Display with metric or nautical units.
time (UTC)temp
F
wind
direction
speed
MPH
gust
MPH
rain 1hr
in
rain 24hr
in
rain mn
in
humidity
%
barometer
mb
20260905102014 72 96 0.0 2.0 0.00 0.00 0.00 93 1012.2
20260905101514 73 96 0.0 1.0 0.00 0.00 0.00 93 1012.1
20260905101013 73 96 0.0 0.0 0.00 0.00 0.00 92 1012.0
20260905100513 73 95 0.0 0.0 0.00 0.00 0.00 92 1012.0
20260905100013 73 96 0.0 0.0 0.00 0.00 0.00 92 1012.0
20260905095514 73 96 0.0 0.0 0.00 0.00 0.00 92 1012.1
20260905095113 73 96 0.0 0.0 0.00 0.00 0.00 92 1012.0
20260905094512 73 96 0.0 2.0 0.00 0.00 0.00 93 1011.9
20260905094010 73 95 0.0 2.0 0.00 0.00 0.00 93 1012.1
20260905093011 73 96 0.0 1.0 0.00 0.00 0.00 93 1012.0
20260905092511 73 95 0.0 1.0 0.00 0.00 0.00 93 1012.0
20260905092014 73 95 0.0 1.0 0.00 0.00 0.00 93 1012.0
20260905091510 73 95 0.0 1.0 0.00 0.00 0.00 93 1012.1
20260905091009 73 96 0.0 1.0 0.00 0.00 0.00 93 1012.0
20260905090509 73 95 0.0 2.0 0.00 0.00 0.00 93 1012.0
20260905090007 73 96 0.0 2.0 0.00 0.00 0.00 92 1012.2
20260905085508 73 96 0.0 0.0 0.00 0.00 0.00 92 1012.0
20260905085007 73 96 0.0 2.0 0.00 0.00 0.00 92 1012.1
20260905084506 74 96 0.0 2.0 0.00 0.00 0.00 92 1012.2
20260905084007 74 96 0.0 1.0 0.00 0.00 0.00 91 1012.2
20260905083008 74 95 0.0 1.0 0.00 0.00 0.00 91 1012.4
20260905082505 74 96 0.0 1.0 0.00 0.00 0.00 92 1012.5
20260905082005 74 96 0.0 2.0 0.00 0.00 0.00 92 1012.5
20260905081505 74 95 0.0 2.0 0.00 0.00 0.00 92 1012.6
20260905081003 74 96 0.0 1.0 0.00 0.00 0.00 92 1012.6
20260905080505 74 96 0.0 2.0 0.00 0.00 0.00 92 1012.8
20260905080002 74 95 0.0 0.0 0.00 0.00 0.00 91 1012.8
20260905075504 75 95 0.0 1.0 0.00 0.00 0.00 90 1012.8
20260905075001 75 95 0.0 1.0 0.00 0.00 0.00 91 1012.8
20260905074600 74 95 0.0 1.0 0.00 0.00 0.00 91 1012.9
20260905074100 74 96 0.0 0.0 0.00 0.00 0.00 91 1013.0
20260905073700 74 96 0.0 0.0 0.00 0.00 0.00 92 1013.0
20260905073059 74 95 0.0 0.0 0.00 0.00 0.00 92 1013.1
20260905072558 75 96 0.0 0.0 0.00 0.00 0.00 91 1013.0
20260905072057 75 96 0.0 0.0 0.00 0.00 0.00 91 1013.0
20260905071558 75 96 0.0 0.0 0.00 0.00 0.00 91 1013.0
20260905071057 75 95 0.0 0.0 0.00 0.00 0.00 91 1013.0
20260905070601 75 96 0.0 0.0 0.00 0.00 0.00 91 1013.0
20260905070056 75 95 0.0 1.0 0.00 0.00 0.00 91 1013.0
20260905065558 75 95 0.0 1.0 0.00 0.00 0.00 90 1013.1
20260905065055 75 96 0.0 1.0 0.00 0.00 0.00 90 1013.2
20260905064554 76 96 0.0 1.0 0.00 0.00 0.00 89 1013.2
20260905064056 77 95 0.0 1.0 0.00 0.00 0.00 88 1013.3
20260905063654 76 96 0.0 1.0 0.00 0.00 0.00 89 1013.3
20260905063052 76 95 0.0 1.0 0.00 0.00 0.00 89 1013.3
20260905062552 77 96 0.0 1.0 0.00 0.00 0.00 88 1013.3
20260905062051 77 95 0.0 1.0 0.00 0.00 0.00 87 1013.3
20260905061555 77 96 0.0 1.0 0.00 0.00 0.00 88 1013.4
20260905061051 77 96 0.0 1.0 0.00 0.00 0.00 89 1013.5
20260905060550 76 95 0.0 6.0 0.00 0.00 0.00 90 1013.5
20260905060049 76 95 0.0 6.0 0.00 0.00 0.00 90 1013.6
20260905055548 76 95 1.0 3.0 0.00 0.00 0.00 90 1013.7
20260905055049 76 95 0.0 1.0 0.00 0.00 0.00 90 1013.7
20260905054548 76 95 0.0 0.0 0.00 0.00 0.00 89 1013.8
20260905054047 76 96 0.0 0.0 0.00 0.00 0.00 90 1013.9
20260905053647 76 96 0.0 0.0 0.00 0.00 0.00 89 1013.8
20260905053054 77 96 0.0 1.0 0.00 0.00 0.00 89 1013.9
20260905052555 77 96 0.0 1.0 0.00 0.00 0.00 88 1014.0
20260905052052 77 95 0.0 1.0 0.00 0.00 0.00 89 1013.9
20260905051549 77 96 0.0 0.0 0.00 0.00 0.00 89 1013.8
20260905051048 77 95 0.0 1.0 0.00 0.00 0.00 89 1013.7
20260905050549 77 96 0.0 3.0 0.00 0.00 0.00 89 1013.7
20260905050049 76 95 1.0 3.0 0.00 0.00 0.00 90 1013.9
20260905045549 77 96 0.0 2.0 0.00 0.00 0.00 89 1013.8
20260905045048 77 95 0.0 1.0 0.00 0.00 0.00 89 1013.8
20260905044550 77 95 0.0 2.0 0.00 0.00 0.00 88 1013.9
20260905044047 77 96 0.0 2.0 0.00 0.00 0.00 89 1013.9
20260905043647 78 95 0.0 1.0 0.00 0.00 0.00 88 1013.7
20260905043043 78 96 0.0 1.0 0.00 0.00 0.00 88 1013.8
20260905042543 78 96 0.0 1.0 0.00 0.00 0.00 89 1013.8
20260905042043 77 95 0.0 0.0 0.00 0.00 0.00 90 1013.8
20260905041550 77 96 0.0 4.0 0.00 0.00 0.00 90 1013.7
20260905041042 77 96 0.0 4.0 0.00 0.00 0.00 90 1013.7
20260905040543 77 96 0.0 0.0 0.00 0.00 0.00 90 1013.7
20260905040042 78 95 0.0 0.0 0.00 0.00 0.00 90 1013.7
20260905035542 78 96 0.0 0.0 0.00 0.00 0.00 89 1013.5
20260905035042 78 96 0.0 0.0 0.00 0.00 0.00 88 1013.6
20260905034548 78 95 0.0 2.0 0.00 0.00 0.00 89 1013.6
20260905034043 78 95 0.0 6.0 0.00 0.00 0.00 90 1013.7
20260905033641 78 95 1.0 3.0 0.00 0.00 0.00 89 1013.6
20260905033042 79 95 1.0 3.0 0.00 0.00 0.00 88 1013.6
20260905032542 79 96 0.0 0.0 0.00 0.00 0.00 87 1013.5
20260905032041 79 95 0.0 0.0 0.00 0.00 0.00 87 1013.4
20260905031542 79 96 0.0 0.0 0.00 0.00 0.00 86 1013.3
20260905031044 79 95 0.0 0.0 0.00 0.00 0.00 87 1013.4
20260905030542 79 95 0.0 0.0 0.00 0.00 0.00 87 1013.4
20260905030045 79 96 0.0 1.0 0.00 0.00 0.00 87 1013.3
20260905025542 79 95 0.0 2.0 0.00 0.00 0.00 87 1013.3
20260905025044 79 95 0.0 3.0 0.00 0.00 0.00 88 1013.3
20260905024541 79 95 0.0 3.0 0.00 0.00 0.00 88 1013.4
20260905024041 79 95 1.0 3.0 0.00 0.00 0.00 88 1013.4
20260905023640 80 95 0.0 2.0 0.00 0.00 0.00 88 1013.5
20260905023039 80 96 0.0 3.0 0.00 0.00 0.00 88 1013.5
20260905022543 80 95 0.0 3.0 0.00 0.00 0.00 87 1013.4
20260905022041 80 96 0.0 2.0 0.00 0.00 0.00 87 1013.5
20260905021540 80 95 0.0 1.0 0.00 0.00 0.00 87 1013.6
20260905021040 80 95 0.0 1.0 0.00 0.00 0.00 86 1013.7
20260905020539 80 96 0.0 2.0 0.00 0.00 0.00 86 1013.8
20260905020040 80 95 0.0 2.0 0.00 0.00 0.00 86 1013.8
20260905015539 81 96 0.0 1.0 0.00 0.00 0.00 85 1013.9
20260905015040 81 95 0.0 1.0 0.00 0.00 0.00 85 1013.9
20260905014538 81 95 0.0 4.0 0.00 0.00 0.00 85 1013.9
20260905014039 82 95 1.0 3.0 0.00 0.00 0.00 83 1013.9
20260905013639 82 95 0.0 2.0 0.00 0.00 0.00 83 1013.9
20260905013045 82 95 0.0 2.0 0.00 0.00 0.00 83 1013.9
20260905012540 82 95 0.0 2.0 0.00 0.00 0.00 83 1013.9
20260905012038 82 95 0.0 2.0 0.00 0.00 0.00 83 1013.8
20260905011537 83 95 0.0 2.0 0.00 0.00 0.00 82 1013.9
20260905011037 83 95 0.0 1.0 0.00 0.00 0.00 81 1013.9
20260905010537 83 95 0.0 1.0 0.00 0.00 0.00 81 1013.9
20260905010041 83 96 0.0 2.0 0.00 0.00 0.00 80 1013.7
20260905005537 83 95 0.0 3.0 0.00 0.00 0.00 79 1013.7
20260905005037 83 95 1.0 3.0 0.00 0.00 0.00 79 1013.7
20260905004549 84 95 0.0 2.0 0.00 0.00 0.00 78 1013.7
20260905004036 84 96 0.0 2.0 0.00 0.00 0.00 79 1013.5
20260905003637 84 96 0.0 2.0 0.00 0.00 0.00 79 1013.5
20260905003042 84 96 0.0 1.0 0.00 0.00 0.00 80 1013.4
20260905002542 84 96 0.0 1.0 0.00 0.00 0.00 81 1013.4
20260905002045 84 95 0.0 2.0 0.00 0.00 0.00 80 1013.3
20260905001548 85 95 0.0 2.0 0.00 0.00 0.00 79 1013.4
20260905001041 85 95 0.0 2.0 0.00 0.00 0.00 78 1013.3
20260905000541 86 96 0.0 1.0 0.00 0.00 0.00 76 1013.2
20260905000048 86 96 0.0 2.0 0.00 0.00 0.00 77 1013.2
20260904235540 86 95 1.0 2.0 0.00 0.00 0.00 76 1013.4
20260904235040 87 95 0.0 2.0 0.00 0.00 0.00 74 1013.4
20260904234541 88 96 0.0 1.0 0.00 0.00 0.00 71 1013.4
20260904234042 88 95 0.0 1.0 0.00 0.00 0.00 70 1013.3
20260904233641 88 95 0.0 1.0 0.00 0.00 0.00 69 1013.2
20260904233035 89 95 0.0 1.0 0.00 0.00 0.00 69 1013.2
20260904232535 89 95 0.0 1.0 0.00 0.00 0.00 70 1013.2
20260904232035 90 95 0.0 2.0 0.00 0.00 0.00 69 1013.2
20260904231535 90 95 0.0 3.0 0.00 0.00 0.00 68 1013.2
20260904231035 90 96 1.0 4.0 0.00 0.00 0.00 67 1013.1
20260904230535 91 95 1.0 6.0 0.00 0.00 0.00 67 1013.1
20260904230034 90 95 2.0 7.0 0.00 0.00 0.00 67 1012.9
20260904225533 91 95 3.0 7.0 0.00 0.00 0.00 65 1012.9
20260904225035 91 96 2.0 7.0 0.00 0.00 0.00 64 1012.9
20260904224533 91 95 4.0 0.0 0.00 0.00 0.00 63 1012.8
20260904224036 92 95 2.0 8.0 0.00 0.00 0.00 62 1012.8
20260904223635 92 96 3.0 8.0 0.00 0.00 0.00 62 1012.9
20260904223038 92 95 3.0 8.0 0.00 0.00 0.00 62 1012.9
20260904222537 92 95 3.0 7.0 0.00 0.00 0.00 61 1013.0
20260904222036 92 96 4.0 9.0 0.00 0.00 0.00 61 1013.0
20260904221537 92 95 2.0 9.0 0.00 0.00 0.00 61 1013.0
20260904221036 92 96 4.0 9.0 0.00 0.00 0.00 60 1013.0
20260904220536 93 95 4.0 9.0 0.00 0.00 0.00 60 1013.0
20260904220036 92 95 4.0 9.0 0.00 0.00 0.00 59 1013.1
20260904215535 93 95 4.0 9.0 0.00 0.00 0.00 59 1013.2
20260904215035 93 96 3.0 7.0 0.00 0.00 0.00 58 1013.2
20260904214535 93 96 2.0 8.0 0.00 0.00 0.00 56 1013.1
20260904214036 93 95 3.0 9.0 0.00 0.00 0.00 56 1013.1
20260904213635 93 96 5.0 9.0 0.00 0.00 0.00 57 1013.1
20260904213038 94 95 5.0 9.0 0.00 0.00 0.00 57 1013.1
20260904212531 94 96 6.0 9.0 0.00 0.00 0.00 55 1013.0
20260904212030 94 96 0.0 6.0 0.00 0.00 0.00 55 1013.1
20260904211531 93 95 1.0 8.0 0.00 0.00 0.00 56 1013.0
20260904211031 93 96 3.0 9.0 0.00 0.00 0.00 55 1013.1
20260904210530 94 96 1.0 6.0 0.00 0.00 0.00 54 1013.1
20260904210029 94 96 2.0 7.0 0.00 0.00 0.00 54 1013.1
20260904205528 94 96 2.0 8.0 0.00 0.00 0.00 54 1013.1
20260904205027 93 96 3.0 9.0 0.00 0.00 0.00 55 1013.2
20260904204528 93 95 5.0 9.0 0.00 0.00 0.00 55 1013.3
20260904204030 94 96 2.0 10.0 0.00 0.00 0.00 54 1013.3
20260904203628 94 96 4.0 9.0 0.00 0.00 0.00 53 1013.3
20260904203033 94 96 2.0 9.0 0.00 0.00 0.00 53 1013.3
20260904202529 94 96 5.0 11.0 0.00 0.00 0.00 53 1013.2
20260904202029 94 96 4.0 11.0 0.00 0.00 0.00 52 1013.1
20260904201526 93 96 2.0 12.0 0.00 0.00 0.00 53 1013.2
20260904201026 94 95 6.0 11.0 0.00 0.00 0.00 52 1013.4
20260904200530 95 95 1.0 7.0 0.00 0.00 0.00 52 1013.5
20260904200025 94 96 1.0 9.0 0.00 0.00 0.00 52 1013.5
20260904195525 94 96 5.0 9.0 0.00 0.00 0.00 51 1013.6
20260904195024 95 96 2.0 9.0 0.00 0.00 0.00 52 1013.6
20260904194530 95 95 3.0 9.0 0.00 0.00 0.00 52 1013.7
20260904194023 94 96 3.0 9.0 0.00 0.00 0.00 54 1013.9
20260904193624 95 96 4.0 9.0 0.00 0.00 0.00 51 1014.1
20260904193023 96 95 4.0 9.0 0.00 0.00 0.00 52 1014.1
20260904192522 96 95 2.0 8.0 0.00 0.00 0.00 52 1014.1
20260904192024 95 95 0.0 9.0 0.00 0.00 0.00 52 1014.2
20260904191520 95 95 4.0 9.0 0.00 0.00 0.00 51 1014.2
20260904191023 95 95 2.0 9.0 0.00 0.00 0.00 51 1014.3
20260904190522 95 96 3.0 8.0 0.00 0.00 0.00 51 1014.3
20260904190019 95 95 5.0 8.0 0.00 0.00 0.00 50 1014.3
20260904185518 96 95 1.0 9.0 0.00 0.00 0.00 50 1014.4
20260904185019 95 95 1.0 9.0 0.00 0.00 0.00 51 1014.4
20260904184522 94 95 2.0 8.0 0.00 0.00 0.00 54 1014.5
20260904184017 93 95 2.0 9.0 0.00 0.00 0.00 54 1014.5
20260904183617 93 96 4.0 9.0 0.00 0.00 0.00 52 1014.6
20260904183015 93 96 5.0 9.0 0.00 0.00 0.00 55 1014.7
20260904182516 94 96 3.0 8.0 0.00 0.00 0.00 55 1014.7
20260904182013 94 96 0.0 6.0 0.00 0.00 0.00 55 1014.8
20260904181520 92 96 1.0 7.0 0.00 0.00 0.00 56 1015.0
20260904181015 93 95 1.0 8.0 0.00 0.00 0.00 58 1015.0
20260904180513 93 96 3.0 9.0 0.00 0.00 0.00 59 1015.0
20260904180027 93 95 6.0 9.0 0.00 0.00 0.00 58 1015.1
20260904175510 93 95 2.0 8.0 0.00 0.00 0.00 58 1015.2
20260904175011 93 96 1.0 9.0 0.00 0.00 0.00 58 1015.2
20260904174509 93 95 2.0 10.0 0.00 0.00 0.00 59 1015.2
20260904174009 93 95 4.0 10.0 0.00 0.00 0.00 60 1015.3
20260904173608 93 96 0.0 8.0 0.00 0.00 0.00 59 1015.4
20260904173012 93 95 0.0 8.0 0.00 0.00 0.00 59 1015.5
20260904172507 92 96 2.0 8.0 0.00 0.00 0.00 60 1015.6
20260904172007 93 96 2.0 8.0 0.00 0.00 0.00 60 1015.8
20260904171513 92 95 2.0 8.0 0.00 0.00 0.00 60 1015.8
20260904171006 92 96 3.0 12.0 0.00 0.00 0.00 60 1015.8
20260904170509 93 95 4.0 12.0 0.00 0.00 0.00 59 1015.6
20260904170006 93 95 1.0 4.0 0.00 0.00 0.00 59 1015.8
20260904165506 92 96 0.0 7.0 0.00 0.00 0.00 62 1015.7
20260904165005 91 95 4.0 7.0 0.00 0.00 0.00 62 1015.7
20260904164504 92 96 0.0 4.0 0.00 0.00 0.00 60 1015.9
20260904164008 92 95 1.0 4.0 0.00 0.00 0.00 60 1016.2
20260904163606 92 95 0.0 6.0 0.00 0.00 0.00 60 1016.2
20260904163004 92 95 2.0 6.0 0.00 0.00 0.00 60 1016.3
20260904162504 92 95 0.0 3.0 0.00 0.00 0.00 62 1016.3
20260904162001 92 96 0.0 1.0 0.00 0.00 0.00 62 1016.4
20260904161500 91 96 0.0 4.0 0.00 0.00 0.00 64 1016.4
20260904161100 90 95 0.0 6.0 0.00 0.00 0.00 65 1016.5
20260904160559 90 96 0.0 6.0 0.00 0.00 0.00 65 1016.4
20260904160059 89 96 2.0 7.0 0.00 0.00 0.00 65 1016.5
20260904155557 89 95 3.0 7.0 0.00 0.00 0.00 66 1016.5
20260904155058 88 96 1.0 4.0 0.00 0.00 0.00 66 1016.5
20260904154556 88 95 0.0 4.0 0.00 0.00 0.00 66 1016.5
20260904154055 88 95 0.0 4.0 0.00 0.00 0.00 67 1016.5
20260904153555 88 96 2.0 4.0 0.00 0.00 0.00 67 1016.6
20260904153104 88 95 1.0 4.0 0.00 0.00 0.00 67 1016.5
20260904152557 87 96 1.0 4.0 0.00 0.00 0.00 68 1016.5
20260904152055 88 95 0.0 2.0 0.00 0.00 0.00 67 1016.5
20260904151554 87 95 0.0 3.0 0.00 0.00 0.00 69 1016.6
20260904151053 86 95 0.0 3.0 0.00 0.00 0.00 69 1016.6
20260904150558 86 96 0.0 6.0 0.00 0.00 0.00 69 1016.7
20260904150052 86 95 0.0 2.0 0.00 0.00 0.00 70 1016.7
20260904145552 86 95 0.0 3.0 0.00 0.00 0.00 70 1016.7
20260904145050 85 95 0.0 3.0 0.00 0.00 0.00 72 1016.8
20260904144549 84 96 0.0 2.0 0.00 0.00 0.00 73 1016.7
20260904144048 84 96 0.0 3.0 0.00 0.00 0.00 74 1016.8
20260904143547 82 96 0.0 3.0 0.00 0.00 0.00 75 1016.7
20260904143046 82 96 1.0 3.0 0.00 0.00 0.00 75 1016.7
20260904142545 82 96 0.0 6.0 0.00 0.00 0.00 76 1016.7
20260904142044 82 95 1.0 6.0 0.00 0.00 0.00 76 1016.7
20260904141544 81 95 1.0 4.0 0.00 0.00 0.00 76 1016.7
20260904141042 81 96 0.0 6.0 0.00 0.00 0.00 78 1016.8
20260904140540 80 95 0.0 6.0 0.00 0.00 0.00 79 1016.7
20260904140040 79 96 0.0 6.0 0.00 0.00 0.00 79 1016.7
20260904135539 79 96 1.0 4.0 0.00 0.00 0.00 79 1016.7
20260904135038 79 96 0.0 6.0 0.00 0.00 0.00 81 1016.7
20260904134545 78 95 2.0 6.0 0.00 0.00 0.00 82 1016.7
20260904134041 78 96 0.0 4.0 0.00 0.00 0.00 83 1016.6
20260904133538 77 96 1.0 6.0 0.00 0.00 0.00 84 1016.6
20260904133053 77 95 0.0 4.0 0.00 0.00 0.00 84 1016.6
20260904132533 77 96 1.0 4.0 0.00 0.00 0.00 85 1016.4
20260904132031 76 95 1.0 7.0 0.00 0.00 0.00 85 1016.6
20260904131531 76 96 2.0 8.0 0.00 0.00 0.00 85 1016.6
20260904131030 76 95 6.0 8.0 0.00 0.00 0.00 84 1016.7
20260904130529 76 96 3.0 7.0 0.00 0.00 0.00 85 1016.6
20260904130028 76 95 1.0 6.0 0.00 0.00 0.00 86 1016.7
20260904125528 75 96 2.0 6.0 0.00 0.00 0.00 86 1016.7
20260904125031 75 96 0.0 6.0 0.00 0.00 0.00 87 1016.9
20260904124527 75 96 0.0 7.0 0.00 0.00 0.00 88 1016.7
20260904124028 74 96 1.0 7.0 0.00 0.00 0.00 88 1016.5
20260904123532 74 96 1.0 6.0 0.00 0.00 0.00 88 1016.7
20260904123027 74 96 0.0 6.0 0.00 0.00 0.00 88 1016.7
20260904122530 74 96 2.0 4.0 0.00 0.00 0.00 87 1016.8
20260904122027 74 96 0.0 4.0 0.00 0.00 0.00 88 1016.7
20260904121529 73 96 0.0 4.0 0.00 0.00 0.00 89 1016.7
20260904121029 73 95 0.0 6.0 0.00 0.00 0.00 89 1016.7
20260904120525 73 95 2.0 6.0 0.00 0.00 0.00 90 1016.6
20260904120034 72 96 0.0 2.0 0.00 0.00 0.00 90 1016.5
20260904115525 72 96 0.0 2.0 0.00 0.00 0.00 91 1016.6
20260904115025 72 96 0.0 2.0 0.00 0.00 0.00 91 1016.6
20260904114525 72 96 0.0 3.0 0.00 0.00 0.00 91 1016.6
20260904114026 72 96 0.0 3.0 0.00 0.00 0.00 92 1016.6
20260904113525 71 96 0.0 1.0 0.00 0.00 0.00 93 1016.3
20260904113025 71 96 0.0 1.0 0.00 0.00 0.00 93 1016.3
20260904112524 71 96 0.0 0.0 0.00 0.00 0.00 93 1016.3
20260904112024 71 96 0.0 0.0 0.00 0.00 0.00 94 1016.2
20260904111525 71 96 0.0 0.0 0.00 0.00 0.00 94 1016.0
20260904111024 71 96 0.0 0.0 0.00 0.00 0.00 94 1015.8
20260904110524 71 96 0.0 0.0 0.00 0.00 0.00 94 1016.0
20260904110024 71 95 0.0 0.0 0.00 0.00 0.00 94 1016.0
20260904105526 71 96 0.0 0.0 0.00 0.00 0.00 95 1015.8
20260904105028 71 96 0.0 0.0 0.00 0.00 0.00 95 1015.7
20260904104534 71 96 0.0 0.0 0.00 0.00 0.00 95 1015.8
20260904104028 71 96 0.0 0.0 0.00 0.00 0.00 95 1015.8
20260904103523 71 96 0.0 0.0 0.00 0.00 0.00 94 1015.7
20260904103021 71 96 0.0 0.0 0.00 0.00 0.00 94 1015.7
20260904102523 71 96 0.0 0.0 0.00 0.00 0.00 94 1015.8